Flag for Canada Weather past 2 weeks in Cornwall, Ontario, Canada

Now
64 °F

Mild.


Feels Like: 64 °F
Forecast: 59 / 84 °F
Wind: No wind

Location: St Anicet

Current Time: Jul 6, 2015 at 8:05:22 AM

Latest Report: Jul 6, 2015 at 7:00 AM


Visibility: N/A

Pressure: 30.12 "Hg

Humidity: 92%

Dew point: 61 °F

Location of CornwallLocation

Historic Weather in Cornwall — Graph

°F

Cornwall temperature yesterday

Maximum temperature yesterday: 80 °F (at 4:00 PM)
Minimum temperature yesterday: 62 °F (at 5:00 AM)
Average temperature yesterday: 70 °F

Past Weeks' High & Low Weather Summary

 TemperatureHumidityPressure
High81 °F (Jun 23, 4:00 PM)100% (Jun 22, 3:00 AM)30.14 "Hg (Jun 22, 3:00 AM)
Low48 °F (Jun 27, 5:00 AM)34% (Jun 26, 5:00 PM)29.53 "Hg (Jun 23, 1:00 PM)
Average65 °F79%29.89 "Hg
* Reported Jun 21 7:00 AM — Jul 6 7:00 AM, Cornwall, Weather by CustomWeather, © 2015

Note: Actual official high and low records may vary slightly from our data, if they occured in-between our weather recording intervals... More about our weather records

Advertising

Cornwall weather history for previous 24 hours

 ConditionsComfort  
Time TempWeatherWind HumidityBarometerVisibility
7:00 AM
Mon, Jul 6
64 °FMild.No wind92%30.12 "HgN/A
6:00 AM58 °FCool.2 mph98%30.11 "HgN/A
5:00 AM60 °FCool.1 mph91%30.09 "HgN/A
4:00 AM60 °FCool.2 mph89%30.09 "HgN/A
3:00 AM61 °FCool.3 mph94%30.10 "HgN/A
2:00 AM62 °FCool.3 mph98%30.10 "HgN/A
1:00 AM64 °FMild.2 mph93%30.10 "HgN/A
12:00 AM61 °FCool.2 mph98%30.10 "HgN/A
11:00 PM
Sun, Jul 5
62 °FCool.1 mph97%30.11 "HgN/A
10:00 PM64 °FMild.2 mph97%30.09 "HgN/A
9:00 PM67 °FMild.1 mph92%30.07 "HgN/A
8:00 PM76 °FMild.1 mph75%30.05 "HgN/A
7:00 PM79 °FWarm.3 mph59%30.04 "HgN/A
6:00 PM80 °FWarm.6 mph56%30.05 "HgN/A
5:00 PM80 °FWarm.8 mph50%30.05 "HgN/A
4:00 PM80 °FWarm.7 mph56%30.05 "HgN/A
3:00 PM79 °FWarm.10 mph60%30.06 "HgN/A
2:00 PM79 °FWarm.10 mph61%30.07 "HgN/A
1:00 PM77 °FWarm.9 mph64%30.06 "HgN/A
12:00 PM76 °FMild.8 mph66%30.06 "HgN/A
11:00 AM74 °FMild.8 mph69%30.06 "HgN/A
10:00 AM72 °FMild.7 mph74%30.05 "HgN/A
9:00 AM68 °FMild.8 mph79%30.05 "HgN/A
8:00 AM64 °FMild.9 mph86%30.05 "HgN/A
Weather by CustomWeather, © 2015

See weather overviewHow to use our weather pages